Flag for Canada Weather past 2 weeks in Markham, Ontario, Canada

Now
43 °F

Clear.


Feels Like: 39 °F
Forecast: 42 / 58 °F
Wind: 6 mph from Northeast

Location: Toronto Buttonville

Current Time: Sep 19, 2014 at 12:29:04 AM

Latest Report: Sep 19, 2014 at 12:00 AM


Visibility: 15 mi

Pressure: 30.26 "Hg

Humidity: 81%

Dew point: 37 °F

Location of MarkhamLocation

Historic Weather in Markham — Graph

°F

Markham temperature yesterday

Maximum temperature yesterday: 57 °F (at 3:00 PM)
Minimum temperature yesterday: 45 °F (at 11:00 PM)
Average temperature yesterday: 51 °F

Past Weeks' High & Low Weather Summary

 TemperatureHumidityPressure
High86 °F (Sep 5, 3:00 PM)100% (Sep 4, 4:00 AM)30.36 "Hg (Sep 4, 4:00 AM)
Low39 °F (Sep 14, 7:00 AM)40% (Sep 6, 5:00 PM)29.52 "Hg (Sep 11, 4:00 AM)
Average60 °F77%30.09 "Hg
* Reported Sep 3 11:00 PM — Sep 18 11:00 PM, Markham, Weather by CustomWeather, © 2014

Note: Actual official high and low records may vary slightly from our data, if they occured in-between our weather recording intervals... More about our weather records

Advertising

Markham weather history for previous 24 hours

 ConditionsComfort  
Time TempWeatherWind HumidityBarometerVisibility
11:00 PM
Sep 18
45 °FClear.6 mph81%30.24 "Hg15 mi
10:00 PM46 °FClear.3 mph76%30.23 "Hg15 mi
9:00 PM48 °FClear.5 mph71%30.22 "Hg15 mi
8:00 PM50 °FSunny.3 mph67%30.20 "Hg15 mi
7:00 PM52 °FPassing clouds.7 mph62%30.18 "Hg15 mi
6:00 PM55 °FPassing clouds.10 mph55%30.17 "Hg15 mi
5:00 PM55 °FPassing clouds.8 mph51%30.17 "Hg15 mi
4:00 PM57 °FPassing clouds.10 mph51%30.16 "Hg15 mi
3:00 PM57 °FPassing clouds.7 mph59%30.16 "Hg15 mi
2:00 PM55 °FPassing clouds.10 mph59%30.16 "Hg15 mi
1:00 PM52 °FScattered clouds.8 mph72%30.16 "Hg15 mi
12:00 PM50 °FPartly sunny.9 mph76%30.15 "Hg15 mi
11:00 AM50 °FOvercast.8 mph88%30.14 "Hg15 mi
10:51 AMN/ALight rain.9 mphN/AN/A13 mi
10:00 AM50 °FLight rain. Overcast.12 mph88%30.13 "Hg12 mi
9:00 AM52 °FOvercast.9 mph88%30.10 "Hg15 mi
8:45 AMN/AOvercast.9 mphN/AN/A15 mi
8:00 AM52 °FPartly sunny.8 mph88%30.08 "Hg15 mi
7:00 AM54 °FMostly cloudy.9 mph82%30.05 "Hg15 mi
6:00 AM54 °FPassing clouds.5 mph88%30.02 "Hg15 mi
5:00 AM48 °FPassing clouds.2 mph94%30.00 "Hg15 mi
4:00 AM46 °FPassing clouds.No wind100%29.98 "Hg15 mi
3:00 AM48 °FPassing clouds.No wind94%29.98 "Hg15 mi
2:00 AM48 °FPassing clouds.No wind94%29.98 "Hg15 mi
1:00 AM50 °FPassing clouds.No wind94%29.98 "Hg15 mi
12:00 AM52 °FPassing clouds.2 mph82%29.97 "Hg15 mi
Weather by CustomWeather, © 2014

See weather overviewHow to use our weather pages